Location: Unspecified
(40.7945°N, 111.1337°W)
Time: 01:17:51
(UTC-06:00)

Altair - Pass Details

Date: 04 July 2019
Orbit: 1501 x 1683 km, 47.2° (Epoch: 17 July)

Event Time Altitude Azimuth Distance (km) Brightness Sun altitude
Rises 23:35:11 0° 297° (WNW) 4,752 11.0 -21.1°
Reaches altitude 10° 23:38:13 10° 296° (WNW) 3,789 10.3 -21.4°
Maximum altitude 23:47:51 73° 214° (SW) 1,688 7.5 -22.2°
Enters shadow 23:53:08 32° 138° (SE) 2,540 8.1 -22.6°
